Flag for Germany Weather past 2 weeks in Warendorf, North Rhine-Westphalia, Germany

Now
79 °F

Sunny.


Feels Like: 81 °F
Forecast: 68 / 97 °F
Wind: 6 mph from Northeast

Location: Muenster / Osnabrueck

Current Time: Jul 3, 2015 at 10:27:37 PM

Latest Report: Jul 3, 2015 at 9:50 PM


Visibility: 10 mi

Pressure: 30.21 "Hg

Humidity: 70%

Dew point: 68 °F

Location of WarendorfLocation

Historic Weather in Warendorf — Graph

°F

Warendorf temperature yesterday

Maximum temperature yesterday: 99 °F (at 3:20 PM)
Minimum temperature yesterday: 72 °F (at 2:50 AM)
Average temperature yesterday: 85 °F

Past Weeks' High & Low Weather Summary

 TemperatureHumidityPressure
High99 °F (Jul 2, 3:20 PM)100% (Jun 19, 6:20 AM)30.27 "Hg (Jun 19, 6:20 AM)
Low46 °F (Jun 23, 3:50 AM)25% (Jul 1, 2:20 PM)29.65 "Hg (Jun 22, 8:50 PM)
Average64 °F71%30.06 "Hg
* Reported Jun 18 9:20 PM — Jul 3 9:20 PM, Warendorf, Weather by CustomWeather, © 2015

Note: Actual official high and low records may vary slightly from our data, if they occured in-between our weather recording intervals... More about our weather records

Advertising

Warendorf weather history for previous 24 hours

 ConditionsComfort  
Time TempWeatherWind HumidityBarometerVisibility
9:20 PM
Fri, Jul 3
81 °FSunny.3 mph66%30.21 "Hg10 mi
8:50 PM82 °FSunny.3 mph62%30.18 "Hg10 mi
8:20 PM84 °FSunny.6 mph58%30.18 "Hg10 mi
7:50 PM84 °FSunny.8 mph55%30.18 "Hg10 mi
7:20 PM86 °FSunny.9 mph52%30.18 "Hg10 mi
6:50 PM86 °FSunny.9 mph52%30.18 "Hg10 mi
6:20 PM86 °FSunny.9 mph49%30.18 "Hg10 mi
5:50 PM88 °FSunny.7 mph49%30.21 "Hg10 mi
5:20 PM88 °FSunny.8 mph49%30.21 "Hg10 mi
4:50 PM86 °FSunny.7 mph49%30.21 "Hg10 mi
4:20 PM88 °FSunny.6 mph49%30.21 "Hg10 mi
3:50 PM86 °FSunny.7 mph49%30.21 "Hg10 mi
3:20 PM86 °FSunny.6 mph49%30.21 "Hg10 mi
2:50 PM86 °FPassing clouds.5 mph49%30.21 "HgN/A
2:20 PM86 °FPassing clouds.5 mph49%30.24 "HgN/A
1:50 PM84 °FPassing clouds.5 mph51%30.24 "HgN/A
1:20 PM84 °FPassing clouds.5 mph55%30.24 "HgN/A
12:50 PM82 °FSunny.7 mph55%30.24 "Hg10 mi
12:20 PM82 °FSunny.6 mph58%30.24 "Hg10 mi
11:50 AM81 °FPassing clouds.5 mph62%30.27 "HgN/A
11:20 AM79 °FSunny.2 mph61%30.27 "Hg10 mi
10:50 AM79 °FSunny.2 mph65%30.24 "Hg10 mi
10:20 AM75 °FPassing clouds.5 mph69%30.24 "HgN/A
9:50 AM75 °FPassing clouds.1 mph69%30.24 "HgN/A
9:20 AM73 °FScattered clouds.2 mph78%30.24 "HgN/A
8:50 AM73 °FSunny.5 mph74%30.24 "Hg10 mi
8:20 AM72 °FSunny.2 mph83%30.24 "Hg10 mi
7:50 AM70 °FSunny.1 mph88%30.24 "Hg10 mi
7:20 AM68 °FSunny.2 mph94%30.24 "Hg10 mi
6:50 AM68 °FSunny.1 mph94%30.24 "Hg10 mi
6:20 AM68 °FSunny.1 mph94%30.21 "Hg10 mi
5:50 AM68 °FPassing clouds.3 mph94%30.21 "HgN/A
5:20 AM68 °FThundershowers. Passing clouds.3 mph94%30.21 "HgN/A
4:50 AM68 °FPassing clouds.6 mph88%30.18 "HgN/A
4:20 AM68 °FThundershowers. Passing clouds.3 mph94%30.18 "HgN/A
3:50 AM68 °FThunderstorms. Partly cloudy.7 mph88%30.18 "HgN/A
3:20 AM70 °FThunderstorms. Partly cloudy.18 mph83%30.15 "HgN/A
2:50 AM73 °FThunderstorms. Partly cloudy.12 mph69%30.15 "HgN/A
2:20 AM73 °FThunderstorms. Partly cloudy.7 mph74%30.18 "HgN/A
1:50 AM73 °FThundershowers. Partly cloudy.13 mph74%30.15 "HgN/A
1:20 AM73 °FThundershowers. Partly cloudy.15 mph74%30.15 "HgN/A
12:50 AM77 °FThundershowers. Passing clouds.15 mph65%30.15 "HgN/A
12:20 AM81 °FClear.2 mph58%30.09 "Hg10 mi
11:50 PM
Thu, Jul 2
79 °FClear.1 mph61%30.09 "Hg10 mi
11:20 PM82 °FClear.3 mph55%30.07 "Hg10 mi
10:50 PM84 °FSunny.2 mph48%30.07 "Hg10 mi
10:20 PM86 °FSunny.1 mph46%30.07 "Hg10 mi
Weather by CustomWeather, © 2015

See weather overviewHow to use our weather pages